Brevnov, Czech Republic

3:27 AM CEST on July 26, 2017 (GMT +0200)
Brevnov

Weather History for 11518 - July, 2013

Change the Weather History Date:

Saturday, July 20, 2013

  Actual Average Record
Temperature  
Mean Temperature 66 °F -  
Max Temperature 76 °F 73 °F - ()
Min Temperature 55 °F 53 °F - ()
Growing Degree Days 16 (Base 50)    
Moisture  
Dew Point 54 °F    
Average Humidity 65    
Maximum Humidity 82    
Minimum Humidity 36    
Precipitation  
Precipitation 0.00 in 0.09 in - ()
Sea Level Pressure  
Sea Level Pressure 30.13 in    
Wind  
Wind Speed 7 mph ()    
Max Wind Speed 12 mph    
Max Gust Speed -    
Visibility 6.9 miles    
Events      
T = Trace of Precipitation, MM = Missing Value Source: Averaged Metar Reports

Daily Weather History Graph

Daily Weather History Graph

Search for Another Location

Airport or City:

Trip Planner

Search our weather history database for the weather conditions in past years. The results will help you decide how hot, cold, wet, or windy it might be!

Date:

Astronomy

Jul. 20, 2013 Rise Set
Actual Time 5:15 AM CEST 9:01 PM CEST
Civil Twilight 4:34 AM CEST 9:43 PM CEST
Nautical Twilight 3:37 AM CEST 10:39 PM CEST
Astronomical Twilight 2:09 AM CEST 12:05 AM CEST
Moon 6:47 PM CEST (7/20) 2:39 AM CEST (7/20)
Length of Visible Light 17h 08m
Length of Day
15h 45m
Waxing Gibbous, 92% of the Moon is Illuminated
Jul 20
Waxing Gibbous
Jul 22
Full
Jul 29
Last Quarter
Aug 6
New
Aug 14
First Quarter

Hourly Weather History & Observations

Time (CEST) Temp. Dew Point Humidity Pressure Visibility Wind Dir Wind Speed Gust Speed Precip Events Conditions
12:00 AM 60.8 °F 55.4 °F 82% 30.12 in - WNW 5.8 mph - N/A   Clear
12:30 AM 62.6 °F 55.4 °F 77% 30.12 in - NW 9.2 mph - N/A   Clear
1:00 AM 62.6 °F 55.4 °F 77% 30.12 in - NNW 10.4 mph - N/A   Clear
1:30 AM 62.6 °F 53.6 °F 72% 30.12 in - NNW 10.4 mph - N/A   Clear
2:00 AM 62 °F 54 °F 69% 30.11 in 31 mi NW 6.7 mph - -   Clear
2:00 AM 62.6 °F 55.4 °F 77% 30.12 in - NW 9.2 mph - N/A   Clear
2:30 AM 60.8 °F 53.6 °F 77% 30.12 in - NNW 9.2 mph - N/A   Clear
3:00 AM 57.2 °F 51.8 °F 82% 30.12 in - WNW 6.9 mph - N/A   Clear
3:30 AM 57.2 °F 51.8 °F 82% 30.12 in - WNW 6.9 mph - N/A   Clear
4:00 AM 59.0 °F 51.8 °F 77% 30.12 in - WNW 6.9 mph - N/A   Clear
4:30 AM 57.2 °F 51.8 °F 82% 30.12 in - WNW 5.8 mph - N/A   Clear
5:00 AM 57.2 °F 51.8 °F 82% 30.12 in - WNW 5.8 mph - N/A   Clear
5:30 AM 59.0 °F 53.6 °F 82% 30.12 in - NW 6.9 mph - N/A   Clear
6:00 AM 59.0 °F 51.8 °F 77% 30.12 in - NW 8.1 mph - N/A   Clear
6:30 AM 59.0 °F 53.6 °F 82% 30.12 in - NNW 9.2 mph - N/A   Clear
7:00 AM 60.8 °F 55.4 °F 82% 30.12 in - NNW 8.1 mph - N/A   Clear
7:30 AM 62.6 °F 55.4 °F 77% 30.12 in 6.2 mi NNW 8.1 mph - N/A   Scattered Clouds
8:00 AM 64 °F 56 °F 70% 30.12 in 19 mi NNW 6.7 mph - -   Partly Cloudy
8:00 AM 64.4 °F 55.4 °F 73% 30.12 in 6.2 mi NNW 9.2 mph - N/A   Scattered Clouds
8:30 AM 64.4 °F 57.2 °F 77% 30.12 in 6.2 mi NNW 8.1 mph - N/A   Mostly Cloudy
9:00 AM 64.4 °F 57.2 °F 77% 30.15 in 6.2 mi NNW 9.2 mph - N/A   Mostly Cloudy
9:30 AM 64.4 °F 57.2 °F 77% 30.15 in 6.2 mi North 9.2 mph - N/A   Partly Cloudy
10:00 AM 66.2 °F 57.2 °F 73% 30.15 in 6.2 mi NNW 8.1 mph - N/A   Partly Cloudy
10:30 AM 68.0 °F 57.2 °F 68% 30.15 in 6.2 mi North 8.1 mph - N/A   Partly Cloudy
11:00 AM 69.8 °F 55.4 °F 60% 30.15 in 6.2 mi North 8.1 mph - N/A   Scattered Clouds
11:30 AM 69.8 °F 57.2 °F 64% 30.15 in 6.2 mi North 9.2 mph - N/A   Scattered Clouds
12:00 PM 69.8 °F 57.2 °F 64% 30.15 in 6.2 mi North 8.1 mph - N/A   Scattered Clouds
12:30 PM 71.6 °F 57.2 °F 60% 30.15 in 6.2 mi North 6.9 mph - N/A   Partly Cloudy
1:00 PM 73.4 °F 57.2 °F 57% 30.15 in 6.2 mi North 8.1 mph - N/A   Scattered Clouds
1:30 PM 71.6 °F 55.4 °F 57% 30.15 in 6.2 mi North 11.5 mph - N/A   Scattered Clouds
2:00 PM 75 °F 53 °F 36% 30.11 in 25 mi North 8.9 mph - -   Mostly Cloudy
2:00 PM 75.2 °F 55.4 °F 50% 30.15 in 6.2 mi North 10.4 mph - N/A   Scattered Clouds
2:30 PM 73.4 °F 53.6 °F 50% 30.15 in 6.2 mi North 10.4 mph - N/A   Scattered Clouds
3:00 PM 75.2 °F 55.4 °F 50% 30.15 in 6.2 mi North 10.4 mph - N/A   Partly Cloudy
3:30 PM 75.2 °F 55.4 °F 50% 30.15 in 6.2 mi North 11.5 mph - N/A   Partly Cloudy
4:00 PM 75.2 °F 53.6 °F 47% 30.12 in - North 10.4 mph - N/A   Clear
4:30 PM 75.2 °F 53.6 °F 47% 30.12 in - North 9.2 mph - N/A   Clear
5:00 PM 75.2 °F 53.6 °F 47% 30.15 in - North 8.1 mph - N/A   Clear
5:30 PM 75.2 °F 51.8 °F 44% 30.12 in - NNE 9.2 mph - N/A   Clear
6:00 PM 75.2 °F 53.6 °F 47% 30.12 in - North 9.2 mph - N/A   Clear
6:30 PM 73.4 °F 51.8 °F 47% 30.12 in - North 9.2 mph - N/A   Clear
7:00 PM 75.2 °F 51.8 °F 44% 30.12 in - North 6.9 mph - N/A   Clear
7:30 PM 73.4 °F 51.8 °F 47% 30.12 in - North 8.1 mph - N/A   Clear
8:00 PM 72 °F 52 °F 39% 30.09 in 44 mi North 6.7 mph - -   Scattered Clouds
8:00 PM 71.6 °F 51.8 °F 50% 30.12 in - North 6.9 mph - N/A   Clear
8:30 PM 69.8 °F 53.6 °F 56% 30.12 in - North 6.9 mph - N/A   Clear
9:00 PM 68.0 °F 51.8 °F 56% 30.12 in - North 4.6 mph - N/A   Clear
9:30 PM 64.4 °F 51.8 °F 64% 30.15 in - North 4.6 mph - N/A   Clear
10:00 PM 62.6 °F 51.8 °F 68% 30.15 in - North 5.8 mph - N/A   Clear
10:30 PM 62.6 °F 51.8 °F 68% 30.15 in - North 5.8 mph - N/A   Clear
11:00 PM 62.6 °F 51.8 °F 68% 30.15 in - NNE 2.3 mph - N/A   Clear
11:30 PM 59.0 °F 51.8 °F 77% 30.15 in - Variable 2.3 mph - N/A   Clear